H1 CPF 2 NER 2021 2 27 9 058 01 glonass141 H2 1908801 9141 44850 2021 2 27 0 0 0 2021 3 2 23 45 0 900 1 1 0 0 0 1 H9 10 0 59272 0.00000 0 -3362334.595 12096994.342 22230335.532 10 0 59272 900.00000 0 -5847363.545 13075155.589 21132862.195 10 0 59272 1800.00000 0 -8108019.134 14167843.692 19625994.363 10 0 59272 2700.00000 0 -10098304.327 15325970.640 17738817.308 10 0 59272 3600.00000 0 -11783141.441 16494104.585 15507787.076 10 0 59272 4500.00000 0 -13139582.964 17612820.826 12976039.045 10 0 59272 5400.00000 0 -14157521.565 18621241.954 10192566.442 10 0 59272 6300.00000 0 -14839869.675 19459661.505 7211283.214 10 0 59272 7200.00000 0 -15202200.968 20072141.259 4089988.325 10 0 59272 8100.00000 0 -15271868.523 20408972.782 889250.604 10 0 59272 9000.00000 0 -15086636.415 20428898.869 -2328764.678 10 0 59272 9900.00000 0 -14692882.084 20101000.058 -5501504.706 10 0 59272 10800.00000 0 -14143445.271 19406165.064 -8567249.702 10 0 59272 11700.00000 0 -13495214.556 18338081.227 -11466320.783 10 0 59272 12600.00000 0 -12806553.968 16903701.227 -14142250.639 10 0 59272 13500.00000 0 -12134679.258 15123164.404 -16542893.257 10 0 59272 14400.00000 0 -11533095.720 13029174.169 -18621450.070 10 0 59272 15300.00000 0 -11049207.030 10665856.142 -20337391.558 10 0 59272 16200.00000 0 -10722197.277 8087143.759 -21657255.567 10 0 59272 17100.00000 0 -10581276.753 5354758.080 -22555306.237 10 0 59272 18000.00000 0 -10644366.505 2535865.913 -23014040.239 10 0 59272 18900.00000 0 -10917277.853 -299486.124 -23024530.285 10 0 59272 19800.00000 0 -11393421.997 -3081054.627 -22586599.189 10 0 59272 20700.00000 0 -12054062.097 -5741087.449 -21708821.126 10 0 59272 21600.00000 0 -12869097.156 -8216904.792 -20408350.320 10 0 59272 22500.00000 0 -13798344.344 -10453265.944 -18710580.698 10 0 59272 23400.00000 0 -14793265.164 -12404423.282 -16648643.549 10 0 59272 24300.00000 0 -15799062.015 -14035778.661 -14262753.384 10 0 59272 25200.00000 0 -16757055.951 -15325074.073 -11599415.240 10 0 59272 26100.00000 0 -17607244.556 -16263068.226 -8710509.517 10 0 59272 27000.00000 0 -18290931.220 -16853672.531 -5652272.887 10 0 59272 27900.00000 0 -18753314.274 -17113542.843 -2484195.806 10 0 59272 28800.00000 0 -18945926.239 -17071146.259 732141.018 10 0 59272 29700.00000 0 -18828820.069 -16765344.423 3934267.890 10 0 59272 30600.00000 0 -18372410.160 -16243554.983 7060041.210 10 0 59272 31500.00000 0 -17558890.788 -15559570.358 10048848.271 10 0 59272 32400.00000 0 -16383172.607 -14771127.051 12842778.346 10 0 59272 33300.00000 0 -14853298.222 -13937328.696 15387737.626 10 0 59272 34200.00000 0 -12990319.789 -13116031.651 17634486.880 10 0 59272 35100.00000 0 -10827643.926 -12361302.949 19539582.759 10 0 59272 36000.00000 0 -8409871.175 -11721056.817 21066205.688 10 0 59272 36900.00000 0 -5791178.018 -11234968.119 22184859.631 10 0 59272 37800.00000 0 -3033307.937 -10932749.194 22873931.618 10 0 59272 38700.00000 0 -203253.691 -10832861.280 23120101.414 10 0 59272 39600.00000 0 2629274.478 -10941713.688 22918594.407 10 0 59272 40500.00000 0 5394491.607 -11253383.753 22273273.412 10 0 59272 41400.00000 0 8025184.197 -11749869.226 21196567.752 10 0 59272 42300.00000 0 10459251.928 -12401862.918 19709240.650 10 0 59272 43200.00000 0 12642041.317 -13170017.931 17839998.660 10 0 59272 44100.00000 0 14528375.826 -14006651.575 15624949.469 10 0 59272 45000.00000 0 16084199.020 -14857817.666 13106917.252 10 0 59272 45900.00000 0 17287762.991 -15665661.471 10334627.281 10 0 59272 46800.00000 0 18130312.652 -16370959.213 7361774.158 10 0 59272 47700.00000 0 18616237.131 -16915735.930 4245990.553 10 0 59272 48600.00000 0 18762681.580 -17245851.479 1047735.537 10 0 59272 49500.00000 0 18598635.249 -17313445.243 -2170876.466 10 0 59272 50400.00000 0 18163533.699 -17079135.403 -5347283.350 10 0 59272 51300.00000 0 17505433.790 -16513878.485 -8419695.876 10 0 59272 52200.00000 0 16678838.337 -15600408.855 -11328306.748 10 0 59272 53100.00000 0 15742262.469 -14334195.393 -14016463.709 10 0 59272 54000.00000 0 14755644.975 -12723872.822 -16431782.859 10 0 59272 54900.00000 0 13777714.707 -10791127.479 -18527179.492 10 0 59272 55800.00000 0 12863424.148 -8570040.482 -20261795.363 10 0 59272 56700.00000 0 12061559.486 -6105914.317 -21601803.554 10 0 59272 57600.00000 0 11412628.946 -3453630.808 -22521074.642 10 0 59272 58500.00000 0 10947119.273 -675608.427 -23001690.758 10 0 59272 59400.00000 0 10684194.415 2160556.146 -23034297.331 10 0 59272 60300.00000 0 10630891.576 4984664.069 -22618285.586 10 0 59272 61200.00000 0 10781848.532 7726600.446 -21761802.345 10 0 59272 62100.00000 0 11119573.386 10319018.530 -20481587.093 10 0 59272 63000.00000 0 11615244.864 12699910.239 -18802639.774 10 0 59272 63900.00000 0 12230008.611 14814955.814 -16757726.119 10 0 59272 64800.00000 0 12916713.875 16619555.159 -14386730.604 10 0 59272 65700.00000 0 13622016.252 18080456.738 -11735870.108 10 0 59272 66600.00000 0 14288756.645 19176916.994 -8856784.279 10 0 59272 67500.00000 0 14858514.950 19901343.260 -5805521.009 10 0 59272 68400.00000 0 15274229.690 20259394.942 -2641437.497 10 0 59272 69300.00000 0 15482772.209 20269540.701 573960.825 10 0 59272 70200.00000 0 15437366.216 19962092.288 3778220.239 10 0 59272 71100.00000 0 15099750.265 19377757.715 6909153.652 10 0 59272 72000.00000 0 14441991.949 18565776.383 9906046.388 10 0 59272 72900.00000 0 13447877.520 17581716.192 12710829.397 10 0 59272 73800.00000 0 12113818.694 16485026.273 15269197.385 10 0 59272 74700.00000 0 10449238.858 15336448.840 17531650.676 10 0 59272 75600.00000 0 8476422.592 14195398.884 19454441.613 10 0 59272 76500.00000 0 6229834.689 13117421.207 21000408.352 10 0 59272 77400.00000 0 3754936.735 12151830.596 22139681.196 10 0 59272 78300.00000 0 1106549.742 11339632.819 22850249.224 10 0 59272 79200.00000 0 -1653170.267 10711812.229 23118377.511 10 0 59272 80100.00000 0 -4457061.129 10288056.448 22938867.813 10 0 59272 81000.00000 0 -7235493.068 10075970.473 22315158.355 10 0 59272 81900.00000 0 -9919013.632 10070812.477 21259260.910 10 0 59272 82800.00000 0 -12440991.231 10255762.168 19791536.102 10 0 59272 83700.00000 0 -14740149.519 10602710.704 17940310.499 10 0 59272 84600.00000 0 -16762888.953 11073539.675 15741341.740 10 0 59272 85500.00000 0 -18465300.071 11621836.423 13237140.704 10 0 59273 0.00000 0 -19814785.485 12194974.616 10476162.378 10 0 59273 900.00000 0 -20791222.960 12736473.424 7511879.247 10 0 59273 1800.00000 0 -21387621.458 13188536.969 4401754.956 10 0 59273 2700.00000 0 -21610240.957 13494666.592 1206135.907 10 0 59273 3600.00000 0 -21478171.957 13602236.316 -2012917.294 10 0 59273 4500.00000 0 -21022390.445 13464921.372 -5192836.251 10 0 59273 5400.00000 0 -20284328.172 13044876.267 -8271765.279 10 0 59273 6300.00000 0 -19314017.880 12314568.568 -11189771.636 10 0 59273 7200.00000 0 -18167891.667 11258189.014 -13890021.000 10 0 59273 8100.00000 0 -16906325.562 9872576.250 -16319894.295 10 0 59273 9000.00000 0 -15591034.335 8167615.001 -18432023.149 10 0 59273 9900.00000 0 -14282427.140 6166088.861 -20185222.752 10 0 59273 10800.00000 0 -13037036.233 3902992.067 -21545303.199 10 0 59273 11700.00000 0 -11905127.926 1424327.554 -22485742.888 10 0 59273 12600.00000 0 -10928597.088 -1214559.404 -22988210.359 10 0 59273 13500.00000 0 -10139234.320 -3951043.080 -23042924.261 10 0 59273 14400.00000 0 -9557438.918 -6717589.003 -22648844.309 10 0 59273 15300.00000 0 -9191431.721 -9444336.628 -21813689.590 10 0 59273 16200.00000 0 -9037000.489 -12061785.246 -20553784.067 10 0 59273 17100.00000 0 -9077787.796 -14503471.095 -18893732.509 10 0 59273 18000.00000 0 -9286108.290 -16708523.946 -16865933.552 10 0 59273 18900.00000 0 -9624259.651 -18623996.655 -14509939.787 10 0 59273 19800.00000 0 -10046270.585 -20206870.827 -11871677.860 10 0 59273 20700.00000 0 -10500010.705 -21425655.389 -9002544.417 10 0 59273 21600.00000 0 -10929571.819 -22261512.265 -5958396.209 10 0 59273 22500.00000 0 -11277818.778 -22708863.378 -2798454.753 10 0 59273 23400.00000 0 -11489001.038 -22775455.115 415852.270 10 0 59273 24300.00000 0 -11511313.776 -22481879.421 3622089.627 10 0 59273 25200.00000 0 -11299299.816 -21860573.510 6758029.272 10 0 59273 26100.00000 0 -10815990.718 -20954342.024 9762857.122 10 0 59273 27000.00000 0 -10034696.712 -19814465.321 12578348.355 10 0 59273 27900.00000 0 -8940370.199 -18498474.566 15149988.690 10 0 59273 28800.00000 0 -7530485.708 -17067687.785 17428020.397 10 0 59273 29700.00000 0 -5815399.506 -15584610.498 19368393.728 10 0 59273 30600.00000 0 -3818173.721 -14110309.528 20933606.549 10 0 59273 31500.00000 0 -1573872.069 -12701869.222 22093417.203 10 0 59273 32400.00000 0 871644.168 -11410035.318 22825418.219 10 0 59273 33300.00000 0 3463370.864 -10277143.562 23115461.051 10 0 59273 34200.00000 0 6139199.052 -9335418.184 22957924.600 10 0 59273 35100.00000 0 8832253.375 -8605709.957 22355822.975 10 0 59273 36000.00000 0 11473435.877 -8096725.452 21320750.599 10 0 59273 36900.00000 0 13994071.534 -7804779.018 19872665.421 10 0 59273 37800.00000 0 16328547.636 -7714077.534 18039513.674 10 0 59273 38700.00000 0 18416839.073 -7797526.155 15856702.304 10 0 59273 39600.00000 0 20206815.682 -8018021.722 13366427.906 10 0 59273 40500.00000 0 21656236.435 -8330180.239 10616873.680 10 0 59273 41400.00000 0 22734347.602 -8682426.497 7661288.476 10 0 59273 42300.00000 0 23423017.920 -9019358.536 4556964.576 10 0 59273 43200.00000 0 23717362.767 -9284287.572 1364133.107 10 0 59273 44100.00000 0 23625830.409 -9421846.164 -1855202.095 10 0 59273 45000.00000 0 23169745.780 -9380553.923 -5038469.548 10 0 59273 45900.00000 0 22382330.178 -9115231.302 -8123750.458 10 0 59273 46800.00000 0 21307237.429 -8589157.951 -11050990.008 10 0 59273 47700.00000 0 19996667.752 -7775882.586 -13763175.099 10 0 59273 48600.00000 0 18509138.668 -6660605.828 -16207454.616 10 0 59273 49500.00000 0 16907007.004 -5241075.431 -18336179.443 10 0 59273 50400.00000 0 15253846.819 -3527954.010 -20107840.876 10 0 59273 51300.00000 0 13611794.223 -1544641.796 -21487888.410 10 0 59273 52200.00000 0 12038971.429 673439.944 -22449410.304 10 0 59273 53100.00000 0 10587099.031 3080076.086 -22973663.194 10 0 59273 54000.00000 0 9299397.246 5619945.095 -23050440.228 10 0 59273 54900.00000 0 8208864.495 8230696.843 -22678270.453 10 0 59273 55800.00000 0 7337005.525 10845334.236 -21864445.630 10 0 59273 56700.00000 0 6693061.962 13394799.320 -20624874.144 10 0 59273 57600.00000 0 6273776.823 15810655.862 -18983765.089 10 0 59273 58500.00000 0 6063701.676 18027756.225 -16973149.044 10 0 59273 59400.00000 0 6036032.120 19986781.127 -14632245.329 10 0 59273 60300.00000 0 6153934.714 21636546.309 -12006688.529 10 0 59273 61200.00000 0 6372307.755 22935979.869 -9147630.043 10 0 59273 62100.00000 0 6639899.852 23855688.225 -6110732.868 10 0 59273 63000.00000 0 6901695.245 24379046.033 -2955079.894 10 0 59273 63900.00000 0 7101463.695 24502765.599 257982.139 10 0 59273 64800.00000 0 7184366.027 24236923.419 3466039.820 10 0 59273 65700.00000 0 7099504.398 23604444.388 6606827.542 10 0 59273 66600.00000 0 6802309.069 22640066.976 9619435.146 10 0 59273 67500.00000 0 6256660.735 21388834.373 12445485.245 10 0 59273 68400.00000 0 5436658.947 19904176.152 15030257.577 10 0 59273 69300.00000 0 4327962.349 18245661.813 17323739.121 10 0 59273 70200.00000 0 2928644.607 16476520.682 19281580.539 10 0 59273 71100.00000 0 1249530.090 14661031.833 20865941.628 10 0 59273 72000.00000 0 -686004.815 12861892.558 22046210.682 10 0 59273 72900.00000 0 -2842757.034 11137674.188 22799585.276 10 0 59273 73800.00000 0 -5174919.459 9540470.028 23111504.487 10 0 59273 74700.00000 0 -7627751.201 8113831.975 22975925.200 10 0 59273 75600.00000 0 -10139627.691 6891080.239 22395437.820 10 0 59273 76500.00000 0 -12644387.299 5894055.206 21381219.366 10 0 59273 77400.00000 0 -15073878.911 5132362.430 19952824.553 10 0 59273 78300.00000 0 -17360606.615 4603141.476 18137818.228 10 0 59273 79200.00000 0 -19440363.269 4291367.927 15971255.094 10 0 59273 80100.00000 0 -21254744.701 4170675.963 13495015.476 10 0 59273 81000.00000 0 -22753440.752 4204667.346 10757008.496 10 0 59273 81900.00000 0 -23896207.972 4348652.315 7810256.572 10 0 59273 82800.00000 0 -24654441.393 4551749.655 4711877.814 10 0 59273 83700.00000 0 -25012279.058 4759257.836 1521985.048 10 0 59273 84600.00000 0 -24967192.120 4915197.172 -1697477.776 10 0 59273 85500.00000 0 -24530034.620 4964915.357 -4883939.247 10 0 59274 0.00000 0 -23724549.810 4857645.453 -7975420.573 10 0 59274 900.00000 0 -22586352.497 4548906.554 -10911748.135 10 0 59274 1800.00000 0 -21161430.059 4002645.203 -13635733.073 10 0 59274 2700.00000 0 -19504223.841 3193023.015 -16094295.159 10 0 59274 3600.00000 0 -17675372.270 2105775.131 -18239507.221 10 0 59274 4500.00000 0 -15739210.318 739078.529 -20029539.018 10 0 59274 5400.00000 0 -13761130.966 -896107.796 -21429481.380 10 0 59274 6300.00000 0 -11804919.923 -2776247.177 -22412033.880 10 0 59274 7200.00000 0 -9930176.072 -4865967.042 -22958042.174 10 0 59274 8100.00000 0 -8189926.238 -7119308.252 -23056874.305 10 0 59274 9000.00000 0 -6628534.509 -9481430.541 -22706628.531 10 0 59274 9900.00000 0 -5279993.702 -11890703.130 -21914168.683 10 0 59274 10800.00000 0 -4166670.129 -14281093.287 -20694986.522 10 0 59274 11700.00000 0 -3298553.484 -16584752.995 -19072894.037 10 0 59274 12600.00000 0 -2673042.140 -18734695.314 -17079552.005 10 0 59274 13500.00000 0 -2275271.329 -20667448.390 -14753844.460 10 0 59274 14400.00000 0 -2078968.622 -22325575.936 -12141111.729 10 0 59274 15300.00000 0 -2047798.756 -23659958.674 -9292257.662 10 0 59274 16200.00000 0 -2137139.124 -24631741.440 -6262749.128 10 0 59274 17100.00000 0 -2296209.120 -25213864.920 -3111528.006 10 0 59274 18000.00000 0 -2470461.654 -25392118.562 100142.270 10 0 59274 18900.00000 0 -2604134.357 -25165671.652 3309872.465 10 0 59274 19800.00000 0 -2642851.505 -24547061.562 6455361.732 10 0 59274 20700.00000 0 -2536165.964 -23561641.109 9475606.141 10 0 59274 21600.00000 0 -2239933.425 -22246509.602 12312077.997 10 0 59274 22500.00000 0 -1718418.618 -20648973.623 14909853.262 10 0 59274 23400.00000 0 -946044.934 -18824602.951 17218665.724 10 0 59274 24300.00000 0 91285.960 -16834963.506 19193868.409 10 0 59274 25200.00000 0 1395359.751 -14745122.056 20797284.801 10 0 59274 26100.00000 0 2955335.287 -12621026.419 21997934.672 10 0 59274 27000.00000 0 4747963.983 -10526869.433 22772621.903 10 0 59274 27900.00000 0 6738334.332 -8522545.141 23106374.182 10 0 59274 28800.00000 0 8881111.450 -6661301.546 22992727.108 10 0 59274 29700.00000 0 11122221.471 -4987685.900 22433847.861 10 0 59274 30600.00000 0 13400912.440 -3535866.366 21440496.282 10 0 59274 31500.00000 0 15652107.777 -2328398.566 20031823.872 10 0 59274 32400.00000 0 17808956.395 -1375487.238 18235013.868 10 0 59274 33300.00000 0 19805475.114 -674773.091 16084768.274 10 0 59274 34200.00000 0 21579174.732 -211653.433 13622650.409 10 0 59274 35100.00000 0 23073561.326 39876.866 10896294.261 10 0 59274 36000.00000 0 24240408.879 115899.139 7958494.408 10 0 59274 36900.00000 0 25041708.163 60814.737 4866192.994 10 0 59274 37800.00000 0 25451209.756 -74767.422 1679382.367 10 0 59274 38700.00000 0 25455495.583 -236410.652 -1540055.933 10 0 59274 39600.00000 0 25054532.724 -368396.993 -4729553.384 10 0 59274 40500.00000 0 24261684.887 -416332.201 -7827074.333 10 0 59274 41400.00000 0 23103179.722 -329698.099 -10772329.215 10 0 59274 42300.00000 0 21617053.198 -64242.987 -13507956.615 10 0 59274 43200.00000 0 19851614.557 415892.680 -15980650.208 10 0 59274 44100.00000 0 17863495.768 1136407.123 -18142207.630 10 0 59274 45000.00000 0 15715367.251 2111501.270 -19950479.791 10 0 59274 45900.00000 0 13473415.822 3343034.384 -21370201.330 10 0 59274 46800.00000 0 11204690.922 4820208.704 -22373685.391 10 0 59274 47700.00000 0 8974430.810 6519798.001 -22941368.639 10 0 59274 48600.00000 0 6843481.073 8406911.748 -23062195.686 10 0 59274 49500.00000 0 4865913.715 10436263.847 -22733835.317 10 0 59274 50400.00000 0 3086946.548 12553893.270 -21962724.328 10 0 59274 51300.00000 0 1541249.568 14699264.833 -20763938.306 10 0 59274 52200.00000 0 251708.485 16807662.159 -19160892.092 10 0 59274 53100.00000 0 -771303.850 18812772.357 -17184876.127 10 0 59274 54000.00000 0 -1530119.129 20649353.888 -14874438.137 10 0 59274 54900.00000 0 -2039422.124 22255875.573 -12274622.695 10 0 59274 55800.00000 0 -2325372.881 23577015.812 -9436084.148 10 0 59274 56700.00000 0 -2424241.700 24565917.204 -6414090.881 10 0 59274 57600.00000 0 -2380616.585 25186102.135 -3267441.057 10 0 59274 58500.00000 0 -2245260.785 25412969.359 -57311.810 10 0 59274 59400.00000 0 -2072712.717 25234809.491 3153934.986 10 0 59274 60300.00000 0 -1918731.053 24653297.756 6303966.549 10 0 59274 61200.00000 0 -1837693.996 23683444.406 9331688.516 10 0 59274 62100.00000 0 -1880063.187 22353006.112 12178426.169 10 0 59274 63000.00000 0 -2090019.561 20701384.038 14789054.874 10 0 59274 63900.00000 0 -2503370.739 18778055.670 17113058.248 10 0 59274 64800.00000 0 -3145817.801 16640606.475 19105494.499 10 0 59274 65700.00000 0 -4031654.003 14352443.698 20727853.387 10 0 59274 66600.00000 0 -5162949.742 11980287.282 21948788.483 10 0 59274 67500.00000 0 -6529257.946 9591541.573 22744711.991 10 0 59274 68400.00000 0 -8107852.463 7251655.855 23100241.888 10 0 59274 69300.00000 0 -9864490.206 5021581.921 23008493.748 10 0 59274 70200.00000 0 -11754666.315 2955432.560 22471212.336 10 0 59274 71100.00000 0 -13725311.533 1098436.428 21498740.637 10 0 59274 72000.00000 0 -15716862.703 -514727.253 20109826.705 10 0 59274 72900.00000 0 -17665621.991 -1861146.310 18331271.394 10 0 59274 73800.00000 0 -19506308.287 -2930395.892 16197422.676 10 0 59274 74700.00000 0 -21174695.896 -3724731.958 13749525.035 10 0 59274 75600.00000 0 -22610231.523 -4258750.193 11034935.032 10 0 59274 76500.00000 0 -23758520.909 -4558524.662 8106216.739 10 0 59274 77400.00000 0 -24573581.112 -4660262.077 5020133.372 10 0 59274 78300.00000 0 -25019763.655 -4608528.056 1836553.623 10 0 59274 79200.00000 0 -25073266.946 -4454119.911 -1382706.699 10 0 59274 80100.00000 0 -24723173.133 -4251675.731 -4575085.365 10 0 59274 81000.00000 0 -23971964.280 -4057121.146 -7678493.237 10 0 59274 81900.00000 0 -22835494.557 -3925062.402 -10632528.348 10 0 59274 82800.00000 0 -21342418.079 -3906237.118 -13379660.028 10 0 59274 83700.00000 0 -19533095.162 -4045131.945 -15866359.053 10 0 59274 84600.00000 0 -17458021.930 -4377869.549 -18044150.829 10 0 59274 85500.00000 0 -15175848.620 -4930455.995 -19870570.020 10 0 59275 0.00000 0 -12751069.420 -5717464.316 -21309997.209 10 0 59275 900.00000 0 -10251480.536 -6741211.970 -22334360.741 10 0 59275 1800.00000 0 -7745513.274 -7991467.140 -22923689.284 10 0 59275 2700.00000 0 -5299554.086 -9445699.598 -23066504.391 10 0 59275 3600.00000 0 -2975363.298 -11069864.515 -22760045.164 10 0 59275 4500.00000 0 -827701.132 -12819688.251 -22010320.616 10 0 59275 5400.00000 0 1097740.381 -14642401.924 -20831988.933 10 0 59275 6300.00000 0 2766013.607 -16478850.219 -19248066.185 10 0 59275 7200.00000 0 4154130.410 -18265886.644 -17289470.524 10 0 59275 8100.00000 0 5251766.655 -19938954.405 -14994411.151 10 0 59275 9000.00000 0 6061428.309 -21434744.128 -12407634.472 10 0 59275 9900.00000 0 6598074.109 -22693816.368 -9579542.780 10 0 59275 10800.00000 0 6888212.911 -23663078.471 -6565203.352 10 0 59275 11700.00000 0 6968515.976 -24298011.587 -3423267.972 10 0 59275 12600.00000 0 6884004.887 -24564554.315 -214824.825 10 0 59275 13500.00000 0 6685893.588 -24440564.221 2997794.178 10 0 59275 14400.00000 0 6429177.361 -23916796.403 6152226.845 10 0 59275 15300.00000 0 6170071.883 -22997358.834 9187290.791 10 0 59275 16200.00000 0 5963411.392 -21699626.274 12044166.559 10 0 59275 17100.00000 0 5860116.213 -20053617.260 14667531.033 10 0 59275 18000.00000 0 5904836.459 -18100861.023 17006619.582 10 0 59275 18900.00000 0 6133870.909 -15892802.221 19016197.290 10 0 59275 19800.00000 0 6573448.163 -13488810.146 20657421.624 10 0 59275 20700.00000 0 7238441.749 -10953875.151 21898581.102 10 0 59275 21600.00000 0 8131572.745 -8356087.360 22715697.102 10 0 59275 22500.00000 0 9243133.204 -5764001.238 23092978.430 10 0 59275 23400.00000 0 10551242.195 -3243994.016 23023120.912 10 0 59275 24300.00000 0 12022624.437 -857725.778 22507446.906 10 0 59275 25200.00000 0 13613880.128 1340195.227 21555882.321 10 0 59275 26100.00000 0 15273194.341 3304246.867 20186771.345 10 0 59275 27000.00000 0 16942416.303 4999644.085 18426531.844 10 0 59275 27900.00000 0 18559423.464 6403539.142 16309156.981 10 0 59275 28800.00000 0 20060673.128 7505721.968 13875571.428 10 0 59275 29700.00000 0 21383836.271 8308791.941 11172853.139 10 0 59275 30600.00000 0 22470404.169 8827794.060 8253334.266 10 0 59275 31500.00000 0 23268158.866 9089334.647 5173597.420 10 0 59275 32400.00000 0 23733403.661 9130213.501 1993385.712 10 0 59275 33300.00000 0 23832859.082 8995629.881 -1225552.955 10 0 59275 34200.00000 0 23545143.418 8737037.794 -4420665.014 10 0 59275 35100.00000 0 22861773.924 8409741.313 -7529810.346 10 0 59275 36000.00000 0 21787644.792 8070331.982 -10492477.149 10 0 59275 36900.00000 0 20340959.965 7774077.464 -13250968.049 10 0 59275 37800.00000 0 18552621.968 7572372.978 -15751533.402 10 0 59275 38700.00000 0 16465100.964 7510364.695 -17945428.756 10 0 59275 39600.00000 0 14130830.501 7624847.081 -19789874.784 10 0 59275 40500.00000 0 11610196.484 7942524.626 -21248900.173 10 0 59275 41400.00000 0 8969203.208 8478712.908 -22294050.395 10 0 59275 42300.00000 0 6276914.110 9236535.160 -22904947.959 10 0 59275 43200.00000 0 3602774.264 10206649.380 -23069693.017 10 0 59275 44100.00000 0 1013926.605 11367518.417 -22785096.350 10 0 59275 45000.00000 0 -1427365.907 12686212.191 -22056740.213 10 0 59275 45900.00000 0 -3666084.713 14119708.617 -20898866.012 10 0 59275 46800.00000 0 -5656508.295 15616638.528 -19334091.220 10 0 59275 47700.00000 0 -7363867.978 17119400.930 -17392961.397 10 0 59275 48600.00000 0 -8765538.768 18566559.239 -15113346.457 10 0 59275 49500.00000 0 -9851716.890 19895417.148 -12539693.431 10 0 59275 50400.00000 0 -10625557.414 21044665.192 -9722150.956 10 0 59275 51300.00000 0 -11102768.314 21956986.103 -6715583.239 10 0 59275 52200.00000 0 -11310680.322 22581508.954 -3578493.417 10 0 59275 53100.00000 0 -11286833.977 22876008.550 -371878.211 10 0 59275 54000.00000 0 -11077145.626 22808757.604 2841963.158 10 0 59275 54900.00000 0 -10733731.707 22359954.029 6000641.965 10 0 59275 55800.00000 0 -10312484.651 21522663.866 9042890.801 10 0 59275 56700.00000 0 -9870503.894 20303240.868 11909748.538 10 0 59275 57600.00000 0 -9463491.026 18721205.822 14545696.659 10 0 59275 58500.00000 0 -9143219.091 16808591.288 16899725.327 10 0 59275 59400.00000 0 -8955182.421 14608779.553 18926309.461 10 0 59275 60300.00000 0 -8936525.373 12174882.404 20586277.051 10 0 59275 61200.00000 0 -9114336.315 9567729.982 21847554.178 10 0 59275 62100.00000 0 -9504377.782 6853551.674 22685773.737 10 0 59275 63000.00000 0 -10110305.522 4101444.224 23084737.392 10 0 59275 63900.00000 0 -10923408.901 1380730.731 23036722.838 10 0 59275 64800.00000 0 -11922883.699 -1241681.723 22542631.197 10 0 59275 65700.00000 0 -13076626.500 -3703838.182 21611971.952 10 0 59275 66600.00000 0 -14342518.465 -5951062.223 20262685.528 10 0 59275 67500.00000 0 -15670146.139 -7937977.912 18520806.332 10 0 59275 68400.00000 0 -17002888.865 -9630144.681 16419971.682 10 0 59275 69300.00000 0 -18280286.928 -11005238.141 14000784.866 10 0 59275 70200.00000 0 -19440592.623 -12053728.263 11310043.179 10 0 59275 71100.00000 0 -20423398.294 -12779026.939 8399844.378 10 0 59275 72000.00000 0 -21172231.572 -13197098.639 5326587.661 10 0 59275 72900.00000 0 -21637008.764 -13335550.352 2149887.477 10 0 59275 73800.00000 0 -21776242.610 -13232238.745 -1068579.452 10 0 59275 74700.00000 0 -21558910.388 -12933452.961 -4266271.633 10 0 59275 75600.00000 0 -20965902.135 -12491749.647 -7381001.464 10 0 59275 76500.00000 0 -19990986.135 -11963531.844 -10352150.842 10 0 59275 77400.00000 0 -18641249.055 -11406474.544 -13121859.185 10 0 59275 78300.00000 0 -16936990.239 -10876906.570 -15636159.830 10 0 59275 79200.00000 0 -14911072.799 -10427260.554 -17846041.648 10 0 59275 80100.00000 0 -12607757.289 -10103700.042 -19708414.179 10 0 59275 81000.00000 0 -10081065.757 -9944025.345 -21186956.622 10 0 59275 81900.00000 0 -7392743.866 -9975947.869 -22252833.490 10 0 59275 82800.00000 0 -4609906.006 -10215806.945 -22885262.415 10 0 59275 83700.00000 0 -1802461.622 -10667784.283 -23071922.785 10 0 59275 84600.00000 0 959569.836 -11323649.867 -22809197.102 10 0 59275 85500.00000 0 3608743.117 -12163050.466 -22102240.338 99